Temp
62 62 62 61 61 60 60 60 59 59 58 59 59 59 59 58 58 68 65 72 70 65 64 75 76 76 77 74 75 75 65 63 68 67 69 74 72 79 79 75 78 79 79 83 86
62 62 62 62 60 60 59 59 59 58 58 58 58 58 58 58 63 65 72 65 64 65 74 73 71 73 72 71 72 69 65 67 74 73 70 74 72 75 72 74 74 77 83 84 85
63 62 62 62 61 60 59 59 58 58 58 58 58 58 58 60 64 72 66 65 65 68 78 76 75 72 68 70 69 68 62 71 69 71 73 72 72 76 73 68 74 73 77 81 82
62 62 62 62 61 60 59 58 58 58 58 58 58 58 58 64 56 75 67 65 65 75 75 73 71 66 65 63 71 61 67 69 70 72 70 69 74 71 73 72 78 79 80 80 80
60 61 61 61 61 60 58 57 58 57 57 57 58 58 60 58 62 77 66 67 72 72 72 70 68 68 63 66 68 62 67 69 70 70 70 72 68 69 71 77 80 80 77 79 79
59 59 60 61 61 60 58 57 56 56 56 57 57 57 56 48 76 76 74 72 73 72 72 73 69 72 67 65 64 68 67 68 69 69 70 65 68 70 71 78 76 77 76 78 78
59 60 59 60 60 59 57 56 56 55 55 56 57 58 53 57 75 75 70 72 74 73 69 73 74 68 69 63 69 67 60 65 67 68 67 69 63 65 73 76 73 74 76 77 77
59 59 58 59 59 58 56 55 55 54 54 55 57 58 50 68 73 69 72 70 73 73 72 75 74 69 66 69 63 60 62 56 66 67 68 65 58 68 74 72 72 74 75 75 76
59 59 58 58 58 56 55 54 54 54 54 55 52 51 48 66 61 69 70 65 69 70 71 72 70 64 65 58 57 59 53 57 60 67 66 64 60 68 72 70 69 72 75 74 74
58 58 57 58 56 54 53 53 53 53 54 58 59 46 56 60 67 68 70 68 64 65 61 61 59 57 58 57 47 53 54 58 56 63 62 61 60 66 71 71 68 72 73 71 71
58 58 57 57 55 52 51 48 45 43 49 52 54 56 62 67 69 67 67 63 64 60 52 55 47 49 56 58 57 56 56 56 59 63 56 58 60 65 69 70 69 71 69 69 69
58 57 57 56 54 53 54 47 54 56 49 57 57 59 62 63 56 63 68 58 54 52 54 50 44 56 60 59 54 54 52 53 59 62 58 59 59 65 68 69 69 69 67 66 67
57 57 57 54 52 50 50 51 58 59 42 54 59 56 60 61 55 61 65 62 54 49 49 43 50 56 56 52 48 51 51 52 52 58 60 58 56 61 64 66 67 67 66 65 64
56 56 54 52 48 48 44 50 55 54 35 50 49 54 58 58 51 65 67 61 51 46 46 41 48 46 50 50 53 47 56 54 53 51 48 58 49 57 61 61 63 64 63 64 63
55 54 52 55 46 44 49 52 52 50 27 53 51 64 60 53 58 58 67 58 50 49 46 43 46 44 41 51 56 50 56 53 54 52 51 53 48 57 61 57 60 62 62 61 61
52 51 51 47 47 46 50 51 48 34 27 46 53 50 50 52 54 59 57 59 55 41 41 45 50 46 45 48 51 56 51 53 53 51 41 50 50 54 56 59 61 61 59 58 59
50 50 48 48 41 48 48 43 31 29 47 46 47 50 50 49 49 53 47 42 38 34 35 43 45 54 56 49 52 50 46 36 34 35 37 52 49 55 59 59 60 58 57 57 58
49 48 47 46 47 48 46 36 27 37 43 51 49 51 45 51 49 51 46 40 47 48 44 37 34 50 56 52 48 47 47 37 29 35 42 49 43 49 56 58 57 56 55 56 56
49 45 44 45 49 48 41 31 33 39 45 43 47 43 46 50 51 51 49 47 50 52 42 41 40 52 53 54 54 49 45 55 43 45 41 48 50 52 50 50 52 53 54 54 54
50 49 43 47 48 44 37 35 39 47 47 46 38 35 40 46 46 47 47 49 46 49 52 45 36 48 50 54 54 52 56 40 43 32 32 44 46 48 45 48 51 51 51 52 53
52 45 44 47 46 37 34 39 42 48 49 43 41 36 36 40 46 39 43 45 46 44 49 46 43 42 47 45 45 48 46 45 45 43 35 35 42 48 47 49 49 51 51 50 51
49 36 47 46 34 36 37 42 44 45 49 46 44 41 36 40 39 38 38 42 46 46 41 47 43 38 40 46 49 47 45 45 38 37 41 38 40 51 50 49 49 50 49 49 49
40 38 44 43 32 36 42 42 45 44 45 44 41 41 44 40 37 39 37 41 44 43 41 45 40 32 36 41 45 41 42 42 41 40 35 33 39 50 47 50 49 46 47 48 46
45 33 37 38 39 39 38 39 39 48 46 47 44 42 40 39 44 39 39 42 47 46 44 47 42 39 35 36 41 35 38 41 37 32 35 38 42 46 49 51 53 49 45 46 44
45 38 45 32 36 39 42 42 39 39 46 48 42 38 35 35 38 37 40 41 44 43 45 44 36 38 38 39 39 38 38 40 37 39 32 40 40 46 49 49 50 45 44 42 38
36 42 45 44 43 40 39 40 41 42 43 41 39 42 42 36 39 36 40 42 41 43 42 42 33 36 34 38 38 35 40 41 40 40 40 41 40 49 49 47 40 40 40 38 37
51 50 48 41 41 38 40 42 43 45 43 44 45 42 41 41 45 46 47 46 45 41 38 37 34 32 30 35 34 31 37 40 41 43 41 35 41 45 42 38 37 37 36 35 35
MSLP
1017.67 1017.86 1018.09 1018.03 1018.26 1018.39 1018.78 1018.78 1019.04 1018.80 1018.76 1018.71 1018.38 1018.09 1017.98 1017.63 1016.94 1015.82 1014.40 1012.90 1012.93 1013.29 1013.60 1012.85 1012.58 1012.44 1012.23 1011.48 1011.49 1011.10 1009.14 1006.91 1005.90 1005.93 1005.90 1006.59 1006.68 1006.28 1007.09 1007.05 1006.89 1007.04 1006.74 1006.82 1006.72
1017.16 1017.17 1017.37 1017.62 1017.73 1017.92 1018.26 1018.46 1018.67 1018.52 1018.65 1018.38 1018.22 1018.07 1017.78 1017.44 1016.21 1014.22 1012.74 1013.14 1013.17 1013.12 1012.71 1012.25 1011.67 1011.79 1011.37 1011.19 1010.89 1010.26 1008.56 1006.84 1006.51 1006.69 1006.62 1006.54 1006.78 1006.56 1006.93 1006.50 1006.59 1006.67 1006.51 1006.71 1006.65
1016.49 1016.58 1016.66 1016.78 1017.08 1017.37 1017.81 1018.09 1018.17 1018.32 1018.36 1018.17 1017.93 1017.92 1017.79 1017.24 1015.10 1012.09 1012.57 1013.12 1013.47 1013.16 1012.02 1011.95 1011.73 1011.52 1010.77 1010.85 1010.22 1009.27 1008.13 1007.42 1007.79 1008.00 1007.47 1006.97 1006.70 1006.75 1006.44 1006.19 1006.27 1006.34 1006.42 1006.46 1006.45
1015.93 1015.92 1016.03 1016.20 1016.41 1016.68 1017.23 1017.63 1017.84 1018.10 1018.06 1018.07 1017.91 1017.73 1017.56 1016.66 1014.19 1012.05 1012.64 1013.05 1013.27 1012.91 1012.44 1011.88 1011.61 1011.11 1010.54 1009.86 1009.53 1009.16 1008.52 1008.16 1007.89 1007.88 1007.84 1007.19 1007.02 1006.45 1006.34 1006.04 1006.26 1006.37 1006.34 1006.34 1006.21
1015.50 1015.25 1015.29 1015.75 1015.70 1016.14 1016.69 1017.26 1017.70 1017.82 1017.92 1017.93 1017.57 1017.96 1017.29 1015.56 1013.15 1012.39 1013.11 1013.33 1013.06 1012.78 1012.00 1011.46 1011.08 1010.46 1009.65 1009.37 1009.22 1009.09 1008.08 1007.99 1008.05 1007.93 1007.55 1007.37 1006.84 1006.37 1006.03 1005.84 1005.92 1005.99 1006.35 1006.06 1006.06
1014.74 1014.79 1014.55 1014.96 1015.27 1015.58 1016.35 1016.81 1017.41 1017.55 1017.58 1017.83 1017.34 1018.03 1017.22 1014.31 1012.12 1012.45 1012.64 1013.00 1012.75 1012.40 1011.61 1011.20 1010.57 1010.38 1009.66 1009.18 1008.94 1008.01 1008.17 1007.80 1007.61 1007.41 1007.18 1007.08 1006.35 1006.18 1005.74 1005.62 1005.54 1005.65 1005.84 1005.81 1005.96
1014.11 1013.91 1014.04 1014.26 1014.62 1014.94 1015.79 1016.49 1016.92 1017.41 1017.09 1017.72 1017.80 1017.47 1016.39 1013.22 1012.01 1012.33 1012.43 1012.20 1012.31 1012.14 1011.42 1011.03 1010.74 1010.67 1009.45 1009.23 1008.53 1008.48 1008.01 1007.26 1006.95 1006.94 1006.45 1006.58 1005.78 1005.06 1005.31 1005.14 1005.39 1005.33 1005.34 1005.55 1005.80
1013.13 1012.81 1013.10 1013.64 1014.19 1014.50 1015.25 1016.16 1016.62 1017.22 1016.94 1017.45 1017.62 1016.52 1014.31 1012.67 1012.37 1011.92 1011.76 1011.77 1011.86 1011.98 1011.73 1010.95 1010.81 1010.34 1009.82 1009.04 1008.81 1008.08 1007.48 1006.16 1005.11 1005.83 1005.94 1006.35 1004.23 1004.53 1004.59 1004.97 1004.85 1004.93 1005.14 1005.47 1005.74
1012.11 1011.91 1012.23 1012.83 1013.41 1014.09 1014.79 1015.93 1016.43 1016.88 1017.26 1017.32 1017.33 1016.36 1012.73 1011.77 1011.61 1010.85 1011.42 1010.86 1011.16 1011.49 1011.76 1011.52 1010.75 1009.90 1009.83 1009.33 1008.01 1007.03 1005.55 1005.09 1004.83 1005.44 1005.36 1005.47 1004.08 1004.53 1004.81 1004.90 1004.85 1004.80 1004.84 1005.31 1005.87
1010.90 1011.05 1011.32 1011.96 1012.97 1013.90 1014.70 1015.91 1016.47 1016.95 1017.02 1016.99 1016.39 1016.14 1012.10 1010.26 1009.95 1010.09 1010.23 1010.37 1010.50 1010.60 1011.62 1011.57 1010.74 1009.63 1008.84 1008.08 1005.96 1005.77 1005.21 1004.90 1004.60 1004.64 1005.34 1004.73 1004.30 1004.47 1004.50 1004.25 1004.49 1004.47 1004.67 1005.48 1005.89
1009.75 1010.04 1010.58 1011.25 1012.25 1013.55 1015.10 1016.25 1016.91 1016.86 1015.97 1013.80 1012.94 1011.20 1009.87 1009.97 1009.95 1009.33 1010.05 1010.34 1010.35 1010.07 1010.08 1010.72 1010.16 1007.27 1007.39 1007.35 1007.01 1006.50 1005.53 1004.91 1004.63 1005.00 1005.46 1004.55 1004.06 1003.75 1003.83 1003.81 1003.90 1004.16 1004.94 1005.58 1006.24
1008.95 1009.16 1009.62 1010.46 1011.74 1012.72 1013.66 1014.31 1013.53 1013.77 1013.30 1012.52 1011.61 1010.39 1010.41 1010.56 1009.36 1008.99 1009.74 1009.45 1009.55 1009.20 1010.09 1010.22 1008.67 1007.89 1007.73 1007.54 1007.47 1006.90 1006.07 1005.35 1005.20 1005.31 1005.07 1004.35 1003.38 1002.90 1003.08 1003.19 1003.48 1004.12 1005.08 1005.95 1006.51
1008.14 1008.79 1009.17 1010.36 1011.79 1012.97 1013.27 1013.30 1013.33 1013.61 1013.50 1010.30 1009.69 1009.12 1009.13 1009.76 1008.14 1007.79 1008.67 1007.90 1008.23 1009.16 1009.57 1010.04 1008.98 1008.22 1008.06 1008.05 1007.79 1006.84 1006.08 1005.62 1005.33 1004.96 1004.94 1004.21 1003.04 1001.99 1002.81 1003.42 1004.08 1004.70 1005.74 1006.41 1006.89
1007.82 1008.43 1009.36 1010.85 1012.71 1012.88 1013.67 1014.04 1013.92 1013.86 1013.10 1009.46 1008.73 1007.89 1008.09 1008.72 1007.80 1007.13 1007.54 1007.42 1008.21 1008.53 1009.53 1010.26 1009.20 1009.13 1008.54 1007.74 1007.50 1006.18 1006.24 1006.08 1005.61 1005.23 1003.57 1003.74 1001.80 1001.73 1002.28 1003.33 1004.18 1005.02 1005.89 1006.60 1007.28
1007.89 1008.53 1009.69 1009.68 1011.39 1013.03 1012.94 1013.78 1014.31 1014.42 1011.51 1007.58 1007.76 1007.48 1007.34 1007.66 1006.32 1005.93 1006.57 1007.22 1007.31 1008.18 1009.33 1008.23 1008.81 1008.83 1009.35 1007.05 1007.10 1006.55 1006.29 1006.27 1005.57 1004.97 1004.32 1003.34 1002.96 1000.67 1002.22 1003.01 1003.93 1005.20 1006.26 1007.18 1007.86
1008.64 1009.73 1010.13 1011.16 1011.98 1012.85 1013.00 1013.71 1014.55 1013.43 1009.52 1007.34 1007.08 1006.83 1007.15 1007.13 1006.32 1005.94 1006.58 1007.76 1008.22 1009.44 1009.68 1009.03 1009.23 1009.05 1008.78 1008.66 1007.65 1007.35 1006.98 1006.18 1005.78 1004.87 1003.68 1002.86 1002.47 1000.69 1001.98 1002.47 1003.88 1005.64 1006.95 1007.89 1008.35
1009.89 1010.65 1010.41 1010.94 1012.18 1012.93 1012.95 1014.04 1013.98 1010.85 1008.27 1006.60 1006.03 1006.42 1006.08 1005.58 1005.78 1005.83 1006.71 1007.59 1008.19 1008.77 1008.74 1008.45 1008.29 1007.23 1006.56 1006.53 1006.82 1007.82 1006.74 1006.11 1005.58 1004.35 1002.63 1002.24 1002.24 1001.27 1002.53 1003.88 1004.72 1006.25 1007.59 1008.47 1008.86
1010.54 1011.01 1011.70 1010.99 1012.20 1012.95 1013.03 1013.33 1011.52 1009.02 1007.25 1006.36 1006.09 1005.47 1005.30 1004.77 1004.96 1005.28 1006.00 1007.03 1007.51 1007.04 1006.69 1007.00 1006.72 1006.09 1005.60 1005.61 1005.65 1006.00 1005.80 1005.44 1003.66 1002.70 1002.14 1003.19 1002.46 1002.73 1004.54 1005.57 1006.70 1007.63 1008.43 1009.00 1009.26
1010.82 1011.70 1012.53 1012.71 1012.42 1013.22 1012.62 1011.61 1009.66 1008.46 1007.73 1006.87 1006.29 1005.76 1004.88 1004.71 1004.36 1004.61 1004.99 1005.74 1006.25 1006.40 1006.12 1005.86 1006.14 1006.24 1005.93 1005.92 1005.46 1005.14 1004.83 1004.47 1003.96 1003.65 1003.01 1002.33 1003.38 1004.94 1005.95 1006.71 1007.50 1008.23 1008.84 1009.35 1009.68
1010.81 1011.47 1012.67 1013.19 1012.96 1013.17 1012.20 1009.92 1008.98 1008.24 1007.73 1007.35 1006.71 1007.52 1005.51 1004.66 1004.51 1004.59 1005.08 1006.26 1006.98 1007.04 1006.64 1006.17 1006.27 1006.51 1006.49 1006.25 1005.87 1005.19 1004.67 1005.29 1004.86 1003.86 1002.85 1002.38 1002.49 1002.80 1005.95 1006.90 1007.78 1008.58 1009.27 1009.76 1010.15
1010.25 1010.61 1012.82 1013.33 1013.26 1012.86 1010.94 1009.13 1008.58 1008.06 1007.88 1007.70 1007.28 1007.49 1007.25 1006.27 1005.43 1006.34 1006.22 1007.54 1007.80 1007.70 1007.02 1006.89 1006.87 1006.95 1006.78 1006.46 1005.79 1005.87 1005.51 1005.69 1005.19 1004.97 1004.07 1003.35 1003.45 1005.43 1006.50 1007.62 1008.34 1009.07 1009.85 1010.44 1010.79
1010.09 1010.69 1012.33 1013.09 1013.00 1012.11 1010.12 1009.00 1008.57 1007.99 1008.09 1008.01 1008.20 1008.00 1007.91 1007.51 1007.09 1007.39 1007.75 1007.86 1008.39 1007.93 1007.96 1008.30 1007.32 1007.01 1007.46 1007.77 1007.64 1007.16 1006.56 1006.34 1006.22 1005.89 1005.84 1005.71 1005.10 1006.42 1007.45 1008.50 1009.27 1009.76 1010.61 1011.22 1011.78
1010.19 1011.26 1012.49 1012.59 1011.48 1010.56 1009.63 1008.75 1008.37 1008.04 1007.81 1008.06 1008.21 1008.59 1008.19 1008.02 1007.65 1008.13 1008.96 1009.38 1009.18 1009.28 1008.98 1008.13 1007.56 1007.81 1008.04 1008.30 1008.25 1007.95 1008.11 1008.14 1008.08 1007.90 1006.93 1006.51 1005.97 1007.46 1008.45 1008.67 1009.49 1010.66 1011.36 1011.88 1012.41
1009.68 1010.32 1011.71 1011.90 1011.22 1009.87 1009.12 1008.31 1008.11 1007.99 1007.86 1007.85 1007.96 1008.81 1008.46 1008.34 1008.01 1008.19 1008.94 1009.57 1009.49 1009.29 1009.09 1008.68 1008.36 1008.08 1007.67 1008.08 1008.33 1008.89 1009.03 1009.07 1009.05 1008.58 1007.61 1007.22 1006.89 1007.50 1008.14 1008.60 1009.30 1010.75 1012.19 1012.68 1013.09
1009.22 1008.62 1008.46 1009.40 1009.69 1009.34 1008.71 1007.78 1007.51 1007.50 1007.76 1007.89 1008.22 1008.75 1009.01 1008.58 1008.39 1008.54 1009.03 1009.45 1009.77 1009.87 1009.57 1009.39 1009.02 1009.23 1009.30 1009.51 1009.56 1009.54 1009.54 1009.53 1009.42 1009.11 1008.91 1008.17 1008.25 1008.51 1008.91 1009.43 1010.05 1011.96 1012.91 1013.73 1014.34
1008.63 1007.88 1008.33 1007.61 1008.34 1008.64 1008.24 1007.35 1006.94 1007.27 1007.40 1007.72 1007.97 1008.11 1008.61 1008.82 1008.69 1008.69 1008.99 1009.18 1009.30 1009.96 1009.89 1010.15 1009.94 1009.97 1009.92 1010.13 1010.24 1010.09 1009.95 1009.93 1009.90 1009.83 1009.75 1009.77 1009.39 1009.59 1010.60 1011.35 1012.46 1013.34 1014.00 1014.82 1015.38
1008.18 1008.09 1007.29 1007.45 1007.74 1007.87 1007.14 1006.78 1006.67 1007.21 1007.81 1008.03 1007.95 1008.36 1008.73 1009.21 1009.15 1009.46 1009.51 1009.69 1009.74 1009.88 1010.29 1010.41 1010.52 1010.64 1010.38 1010.83 1010.88 1010.71 1010.37 1010.24 1010.39 1010.54 1010.74 1010.82 1010.91 1011.81 1012.00 1012.89 1014.03 1014.84 1015.57 1016.31 1016.72
Wind_Speed
15 14 14 13 12 11 10 7 6 5 6 9 11 12 16 17 18 12 14 0 3 7 9 10 9 8 9 8 8 5 9 13 20 12 10 3 10 5 3 8 7 7 9 11 15
16 16 16 15 13 12 11 9 7 5 6 7 10 12 15 16 15 15 3 3 5 12 12 13 12 12 8 10 7 12 12 15 12 10 11 10 11 11 8 12 12 14 12 8 9
18 19 18 17 15 13 12 10 8 6 6 6 8 11 13 16 10 1 7 8 8 10 9 7 7 11 12 8 12 10 18 16 9 13 11 14 15 13 15 16 15 14 13 11 10
19 20 19 18 17 15 14 11 9 7 4 4 8 10 13 5 10 4 2 11 12 8 10 10 10 11 10 14 15 13 16 15 14 12 15 16 15 17 15 18 15 14 14 12 11
18 20 20 20 18 15 14 12 9 6 1 3 4 8 6 8 10 4 6 8 12 10 12 12 12 12 13 9 12 18 16 13 15 14 16 16 19 19 18 16 14 12 9 12 8
18 21 20 20 18 16 14 13 10 7 3 3 2 5 6 14 4 4 6 9 11 13 14 14 9 12 12 13 16 2 12 12 10 14 16 16 17 15 12 13 10 9 9 6 6
21 22 21 20 19 17 17 15 13 8 5 3 5 5 13 18 6 6 4 13 14 16 18 16 17 14 7 13 18 13 16 16 17 17 16 12 19 20 17 13 10 9 7 5 4
23 20 19 21 19 18 19 17 14 10 5 4 6 4 12 7 11 18 17 15 12 14 16 10 13 17 13 7 7 12 14 15 5 14 12 11 13 4 4 8 11 8 6 5 4
22 17 18 18 19 20 22 18 14 8 5 5 4 4 14 6 10 14 19 14 18 10 12 7 11 16 13 16 16 16 16 16 10 12 6 15 9 7 7 8 11 11 9 4 4
21 19 19 18 20 22 22 15 9 3 5 5 5 4 9 12 5 4 4 16 12 14 11 13 9 12 17 17 19 19 19 16 14 9 12 12 13 10 17 13 11 11 6 4 3
20 20 18 21 25 27 19 9 4 4 8 12 10 11 5 4 5 11 6 12 15 14 21 18 13 25 23 22 21 10 15 14 8 7 6 15 17 16 14 14 13 10 7 3 2
18 18 16 24 30 29 13 6 5 4 8 19 23 25 21 3 8 12 15 11 13 19 19 14 26 24 18 18 20 22 19 19 15 16 11 15 16 13 15 15 8 7 8 4 2
15 15 20 29 28 13 11 7 8 4 2 13 19 19 21 19 21 21 21 13 16 16 18 20 19 9 21 18 19 21 21 16 15 5 13 13 19 14 6 7 8 7 5 3 4
12 15 26 28 13 9 6 6 5 1 4 10 8 8 10 9 13 25 21 15 10 21 17 10 19 20 15 24 22 22 16 15 12 10 11 6 4 12 9 11 10 8 6 3 5
14 29 33 16 16 8 9 10 4 4 8 2 6 3 8 15 8 11 25 17 20 13 15 16 22 24 20 16 16 18 7 14 16 13 14 14 8 6 13 10 12 9 5 5 7
27 27 22 8 4 6 10 9 1 6 10 6 7 9 11 17 9 3 18 11 3 1 6 13 1 6 16 17 16 9 6 10 10 11 14 17 12 11 13 11 11 9 5 6 9
21 16 8 2 8 9 13 5 2 8 3 7 6 8 13 8 9 9 17 13 9 7 11 14 19 18 14 15 14 21 12 7 9 9 13 2 10 4 11 6 5 6 6 8 10
17 9 7 6 11 14 4 2 9 1 7 1 3 6 8 8 9 15 19 16 18 14 6 9 8 20 9 15 10 22 19 10 11 11 10 7 8 7 11 13 10 8 6 8 10
12 3 4 6 8 6 5 5 2 6 2 4 8 8 11 9 7 15 18 19 15 9 8 14 9 4 4 5 6 15 20 17 10 4 7 8 8 8 9 8 6 6 6 8 11
6 7 4 6 5 5 3 3 7 4 2 4 9 2 6 10 8 11 12 3 7 1 8 2 5 4 5 5 4 6 7 8 8 12 15 12 9 3 8 5 5 6 6 7 10
5 5 5 7 2 1 5 5 5 4 2 4 3 4 2 4 6 2 6 6 1 3 5 7 7 6 3 3 3 5 6 4 5 5 7 11 2 4 8 5 6 8 8 10 11
4 4 7 5 4 3 8 5 1 4 6 3 2 2 4 5 5 6 5 3 3 5 6 5 3 4 2 3 2 3 2 4 5 8 4 7 6 4 6 6 7 8 8 8 10
4 4 2 2 6 8 6 7 8 6 8 6 4 3 1 6 2 11 4 4 1 5 5 2 2 3 3 2 1 2 1 2 3 1 9 10 2 6 3 3 3 6 7 8 8
5 5 4 4 1 5 10 11 10 8 6 4 4 3 3 6 2 10 10 4 4 4 6 2 3 6 5 4 4 5 7 4 3 4 4 9 13 4 8 15 15 1 4 5 8
4 4 7 9 11 10 9 10 15 9 6 7 6 5 4 5 4 6 6 10 5 0 3 1 4 1 4 4 1 2 6 7 10 10 7 9 11 14 16 18 9 2 4 6 8
4 4 5 3 12 14 9 9 13 9 8 9 4 6 11 4 3 8 10 7 5 3 3 3 4 1 2 3 4 8 9 10 11 13 14 15 16 11 17 5 3 3 5 6 8
2 1 4 9 13 11 12 9 14 10 2 4 6 6 9 9 9 9 8 6 6 6 5 4 5 4 2 2 1 8 5 10 9 7 7 11 13 17 15 3 4 5 8 7 9
Wind_Direction
238 239 239 233 231 226 237 241 244 268 292 308 321 326 321 324 309 288 267 68 159 154 198 151 172 175 195 201 221 247 246 247 247 252 260 205 251 149 340 260 257 258 277 301 309
243 239 237 236 229 223 218 221 224 243 274 303 320 326 324 321 302 274 245 142 221 171 182 184 177 176 198 216 204 220 238 259 279 271 259 262 243 276 269 262 260 275 272 280 288
247 242 236 232 226 218 212 210 206 226 261 300 321 327 321 311 287 0 135 182 183 199 196 198 187 197 222 216 206 213 244 269 242 260 265 267 266 266 262 270 266 279 287 293 296
258 243 237 233 227 215 201 194 199 217 243 300 326 330 317 274 292 56 40 169 182 204 186 181 190 201 233 217 221 247 235 260 250 257 253 256 268 267 270 269 278 274 280 288 282
272 251 238 236 223 213 192 185 193 198 219 302 343 331 301 236 246 61 121 161 179 196 207 200 210 225 234 232 232 239 254 250 249 247 250 266 262 265 266 270 273 269 271 277 287
268 267 248 234 224 206 185 170 174 178 151 301 357 305 265 254 281 251 217 196 217 212 218 226 233 237 277 240 233 286 249 251 247 239 243 252 254 244 247 258 255 246 255 256 280
268 268 260 231 220 196 175 168 160 155 115 323 310 278 255 257 258 199 204 226 239 239 244 239 246 228 236 245 231 257 252 243 241 244 239 248 255 245 251 262 254 221 244 262 294
267 260 240 242 211 188 165 158 153 153 125 264 295 246 261 244 262 247 244 232 240 245 247 247 223 238 244 255 223 233 239 248 184 223 224 216 261 188 221 221 227 258 250 267 307
269 246 231 228 196 170 153 153 149 152 188 234 239 200 265 121 228 243 231 231 221 224 231 258 206 214 209 238 241 219 252 219 229 206 186 213 255 257 185 210 255 262 266 300 299
265 232 216 214 179 154 139 133 120 151 207 226 240 228 233 238 191 222 217 213 217 203 212 223 219 219 219 217 230 236 228 249 235 173 226 221 241 248 273 262 249 261 279 255 278
247 217 214 190 151 138 119 109 134 219 222 209 201 243 274 278 242 217 175 173 203 194 207 203 213 222 225 225 240 287 269 249 202 220 262 253 257 254 248 251 240 245 195 189 344
229 209 203 169 151 153 149 192 185 11 260 227 253 250 262 282 270 222 167 177 191 213 218 209 232 240 232 240 238 247 250 254 264 259 244 259 254 241 248 247 245 177 161 131 334
208 202 164 146 142 146 181 166 109 139 303 271 230 246 240 222 242 233 200 192 193 206 212 217 249 235 251 237 231 237 245 252 255 208 233 263 260 235 197 163 154 137 118 129 32
191 158 140 129 123 143 145 142 119 339 241 257 200 245 202 200 258 225 211 199 196 213 197 235 249 292 271 239 227 237 220 245 251 249 253 195 264 173 173 170 182 159 161 77 29
148 140 139 145 128 174 150 154 161 242 275 152 159 91 163 187 336 192 203 211 215 198 181 204 199 194 234 234 222 248 228 233 241 249 262 235 252 161 176 179 174 162 118 69 22
114 122 119 86 65 111 128 130 153 171 230 190 163 176 178 216 240 33 186 217 153 182 260 241 281 182 216 235 254 262 239 235 240 240 243 245 228 168 187 187 143 135 98 31 10
101 104 79 86 126 137 120 116 149 234 148 179 209 194 213 206 222 208 180 176 173 185 204 212 219 217 208 213 202 215 216 210 225 216 243 166 227 202 131 116 97 106 57 21 6
94 73 40 108 136 143 126 105 222 294 220 22 289 243 226 207 227 205 184 192 221 236 221 210 209 212 184 232 201 197 203 219 214 226 230 144 229 106 91 87 89 74 35 11 3
98 59 89 136 132 169 161 197 216 201 265 275 286 287 214 210 239 202 198 206 197 219 227 195 200 164 187 209 233 191 217 243 282 270 275 199 143 114 113 109 103 63 20 11 6
124 115 120 159 151 175 224 201 185 202 292 256 227 266 263 204 202 188 176 128 170 259 290 57 134 191 140 196 113 262 164 200 218 246 240 237 240 160 139 114 72 45 23 17 8
147 130 125 143 200 174 223 192 176 227 286 298 198 164 249 296 248 129 181 123 82 96 66 30 271 146 220 337 55 168 189 232 286 283 275 271 245 84 111 79 40 32 21 12 2
173 137 137 162 171 208 212 199 181 202 226 201 107 170 142 280 188 134 187 42 7 43 129 204 278 142 96 27 287 285 292 276 255 214 262 300 292 139 113 63 8 15 16 5 1
123 118 121 208 197 200 210 205 199 225 206 206 144 209 210 207 155 127 151 317 197 181 214 199 141 180 207 188 44 243 114 126 137 245 254 263 266 147 120 234 115 338 352 358 0
182 146 152 209 223 229 196 201 199 215 196 201 154 119 259 166 229 149 147 146 158 139 56 237 178 276 260 53 95 174 172 162 167 228 291 244 293 215 288 308 319 74 340 357 17
202 188 168 186 198 207 202 202 194 176 192 198 153 173 205 177 123 138 131 131 103 62 66 20 180 190 85 107 130 194 213 220 239 247 254 292 301 304 317 318 348 43 30 27 30
167 178 178 201 182 196 180 214 199 172 179 183 210 199 175 218 230 176 155 172 165 118 100 5 125 156 228 244 258 265 255 251 250 260 266 273 276 3 334 14 53 47 52 23 29
185 206 241 142 185 187 197 221 199 165 132 193 237 159 138 105 87 88 85 90 117 142 123 135 140 164 184 137 255 251 280 264 244 250 292 285 341 330 318 176 42 53 49 34 27